,,Stat5,,Stat1,,Stat2,,Stat3,,Stat4,,Wind1,,Wind1,
time,status,PA1M_AVG,status,PR1M_SUM,status,RH1M_AVG,status,SR1M_AVG,status,TA1M_AVG,status,W1dAve1m,status,W1sAve1m,
2003-04-27, 00:00:01,VALID,916.594,VALID,0.2,VALID,100,VALID,0.152827,VALID,19.6032,VALID,127,VALID,1.62162,
2003-04-27, 00:01:00,VALID,916.58,VALID,0,VALID,100,VALID,0.220751,VALID,19.6064,VALID,138,VALID,1.49683,
2003-04-27, 00:02:01,VALID,916.544,VALID,0,VALID,100,VALID,0.152827,VALID,19.5932,VALID,117,VALID,1.19285,
2003-04-27, 00:03:00,VALID,916.53,VALID,0,VALID,100,VALID,0.220751,VALID,19.5902,VALID,119,VALID,1.41744,
2003-04-27, 00:04:01,VALID,916.476,VALID,0,VALID,100,VALID,0.169808,VALID,19.6062,VALID,136,VALID,1.30699,
2003-04-27, 00:05:00,VALID,916.44,VALID,0,VALID,100,VALID,0.20377,VALID,19.5999,VALID,128,VALID,1.35137,
2003-04-27, 00:06:00,VALID,916.425,VALID,0,VALID,100,VALID,0.118866,VALID,19.5937,VALID,126,VALID,1.46735,
2003-04-27, 00:07:00,VALID,916.405,VALID,0.2,VALID,100,VALID,0.152827,VALID,19.5932,VALID,135,VALID,1.00955,
2003-04-27, 00:08:00,VALID,916.392,VALID,0,VALID,100,VALID,0.101885,VALID,19.6069,VALID,137,VALID,1.35296,
2003-04-27, 00:09:00,VALID,916.363,VALID,0,VALID,100,VALID,0.135847,VALID,19.6032,VALID,138,VALID,0.984164,
2003-04-27, 00:10:01,VALID,916.335,VALID,0,VALID,100,VALID,0.0849042,VALID,19.6064,VALID,141,VALID,1.75673,
2003-04-27, 00:11:01,VALID,916.302,VALID,0,VALID,100,VALID,0.118866,VALID,19.6166,VALID,134,VALID,1.65445,
2003-04-27, 00:12:00,VALID,916.269,VALID,0,VALID,100,VALID,0.135847,VALID,19.6293,VALID,150,VALID,1.11986,
2003-04-27, 00:13:00,VALID,916.244,VALID,0,VALID,100,VALID,0.152827,VALID,19.6166,VALID,142,VALID,1.71998,
2003-04-27, 00:14:00,VALID,916.2,VALID,0,VALID,100,VALID,0.152827,VALID,19.6094,VALID,150,VALID,0.791385,
2003-04-27, 00:15:00,VALID,916.184,VALID,0,VALID,100,VALID,0.101885,VALID,19.6198,VALID,138,VALID,1.38585,
2003-04-27, 00:16:01,VALID,916.155,VALID,0,VALID,100,VALID,0.169808,VALID,19.6134,VALID,142,VALID,1.39084,
2003-04-27, 00:17:01,VALID,916.13,VALID,0,VALID,100,VALID,0.169808,VALID,19.6201,VALID,147,VALID,1.56517,
2003-04-27, 00:18:01,VALID,916.114,VALID,0.2,VALID,100,VALID,0.169808,VALID,19.6099,VALID,132,VALID,1.25861,
2003-04-27, 00:19:01,VALID,916.107,VALID,0,VALID,100,VALID,0.20377,VALID,19.6067,VALID,124,VALID,0.919872,
2003-04-27, 00:20:00,VALID,916.097,VALID,0,VALID,100,VALID,0.101885,VALID,19.6034,VALID,126,VALID,1.01985,
2003-04-27, 00:21:00,VALID,916.092,VALID,0,VALID,100,VALID,0.135847,VALID,19.5972,VALID,129,VALID,1.05243,
2003-04-27, 00:22:00,VALID,916.084,VALID,0,VALID,100,VALID,0.135847,VALID,19.5997,VALID,123,VALID,0.830929,
2003-04-27, 00:23:01,VALID,916.081,VALID,0,VALID,100,VALID,0.186789,VALID,19.6134,VALID,111,VALID,1.04187,
2003-04-27, 00:24:01,VALID,916.073,VALID,0,VALID,100,VALID,0.186789,VALID,19.6059,VALID,124,VALID,1.12891,
2003-04-27, 00:25:01,VALID,916.062,VALID,0,VALID,100,VALID,0.271693,VALID,19.6024,VALID,117,VALID,1.13096,
2003-04-27, 00:26:00,VALID,916.046,VALID,0,VALID,100,VALID,0.237732,VALID,19.5962,VALID,136,VALID,0.66913,
2003-04-27, 00:27:01,VALID,916.037,VALID,0,VALID,100,VALID,0.271693,VALID,19.6216,VALID,113,VALID,0.959852,
2003-04-27, 00:28:00,VALID,916.025,VALID,0,VALID,100,VALID,0.186789,VALID,19.5987,VALID,117,VALID,1.19227,
2003-04-27, 00:29:00,VALID,915.997,VALID,0,VALID,100,VALID,0.220751,VALID,19.5992,VALID,144,VALID,0.911801,
2003-04-27, 00:30:01,VALID,915.99,VALID,0,VALID,100,VALID,0.220751,VALID,19.596,VALID,133,VALID,1.39084,
2003-04-27, 00:31:01,VALID,915.979,VALID,0,VALID,100,VALID,0.220751,VALID,19.5893,VALID,124,VALID,1.08504,
2003-04-27, 00:32:01,VALID,915.962,VALID,0.2,VALID,100,VALID,0.271693,VALID,19.5925,VALID,134,VALID,0.896205,
2003-04-27, 00:33:01,VALID,915.965,VALID,0,VALID,100,VALID,0.271693,VALID,19.592,VALID,106,VALID,1.27919,
2003-04-27, 00:34:01,VALID,915.957,VALID,0,VALID,100,VALID,0.254712,VALID,19.5952,VALID,113,VALID,1.01663,
2003-04-27, 00:35:01,VALID,915.948,VALID,0,VALID,100,VALID,0.20377,VALID,19.5957,VALID,122,VALID,0.913281,
2003-04-27, 00:36:01,VALID,915.933,VALID,0,VALID,100,VALID,0.254712,VALID,19.599,VALID,124,VALID,0.982936,
2003-04-27, 00:37:01,VALID,915.92,VALID,0,VALID,100,VALID,0.254712,VALID,19.5726,VALID,129,VALID,0.891892,
2003-04-27, 00:38:01,VALID,915.887,VALID,0,VALID,100,VALID,0.237732,VALID,19.5825,VALID,113,VALID,0.871995,
2003-04-27, 00:39:01,VALID,915.882,VALID,0.2,VALID,100,VALID,0.254712,VALID,19.5922,VALID,128,VALID,1.08393,
2003-04-27, 00:40:01,VALID,915.861,VALID,0,VALID,100,VALID,0.305655,VALID,19.5925,VALID,128,VALID,1.0619,
2003-04-27, 00:41:01,VALID,915.849,VALID,0,VALID,100,VALID,0.271693,VALID,19.5855,VALID,125,VALID,1.0404,
2003-04-27, 00:42:01,VALID,915.826,VALID,0,VALID,100,VALID,0.271693,VALID,19.586,VALID,133,VALID,0.833203,
2003-04-27, 00:43:01,VALID,915.822,VALID,0,VALID,100,VALID,0.237732,VALID,19.6022,VALID,144,VALID,0.470052,
2003-04-27, 00:44:01,VALID,915.804,VALID,0.2,VALID,100,VALID,0.237732,VALID,19.5925,VALID,120,VALID,1.07031,
2003-04-27, 00:45:01,VALID,915.788,VALID,0,VALID,100,VALID,0.220751,VALID,19.5855,VALID,109,VALID,0.600084,
2003-04-27, 00:46:01,VALID,915.782,VALID,0,VALID,100,VALID,0.237732,VALID,19.5825,VALID,137,VALID,1.32813,
2003-04-27, 00:47:01,VALID,915.759,VALID,0,VALID,100,VALID,0.254712,VALID,19.599,VALID,142,VALID,0.665541,
2003-04-27, 00:48:01,VALID,915.735,VALID,0,VALID,100,VALID,0.237732,VALID,19.6052,VALID,134,VALID,0.406461,
2003-04-27, 00:49:01,VALID,915.707,VALID,0,VALID,100,VALID,0.237732,VALID,19.5885,VALID,152,VALID,0.292411,
2003-04-27, 00:50:01,VALID,915.681,VALID,0.2,VALID,100,VALID,0.220751,VALID,19.5955,VALID,141,VALID,0.481291,
2003-04-27, 00:51:01,VALID,915.658,VALID,0,VALID,100,VALID,0.254712,VALID,19.5957,VALID,85,VALID,0.445313,
2003-04-27, 00:52:01,VALID,915.626,VALID,0,VALID,100,VALID,0.271693,VALID,19.6089,VALID,154,VALID,0.429688,
2003-04-27, 00:53:00,VALID,915.601,VALID,0,VALID,100,VALID,0.20377,VALID,19.6084,VALID,140,VALID,0.290039,
2003-04-27, 00:54:00,VALID,915.577,VALID,0,VALID,100,VALID,0.254712,VALID,19.596,VALID,126,VALID,0.344367,
2003-04-27, 00:55:00,VALID,915.551,VALID,0,VALID,100,VALID,0.254712,VALID,19.5758,VALID,124,VALID,0.349712,
2003-04-27, 00:56:00,VALID,915.54,VALID,0,VALID,100,VALID,0.288674,VALID,19.5796,VALID,103,VALID,0.535352,
2003-04-27, 00:57:00,VALID,915.526,VALID,0,VALID,100,VALID,0.20377,VALID,19.5828,VALID,107,VALID,0.890224,
2003-04-27, 00:58:00,VALID,915.511,VALID,0,VALID,100,VALID,0.271693,VALID,19.5788,VALID,124,VALID,0.571652,
2003-04-27, 00:59:00,VALID,915.491,VALID,0,VALID,100,VALID,0.288674,VALID,19.5825,VALID,118,VALID,0.819727,
2003-04-27, 01:00:00,VALID,915.462,VALID,0.2,VALID,100,VALID,0.237732,VALID,19.5895,VALID,129,VALID,0.648655,
2003-04-27, 01:01:00,VALID,915.435,VALID,0,VALID,100,VALID,0.20377,VALID,19.5893,VALID,123,VALID,0.538845,
2003-04-27, 01:02:00,VALID,915.41,VALID,0,VALID,100,VALID,0.237732,VALID,19.5858,VALID,125,VALID,0.522436,
2003-04-27, 01:03:00,VALID,915.399,VALID,0,VALID,100,VALID,0.186789,VALID,19.5825,VALID,139,VALID,0.392475,
2003-04-27, 01:04:00,VALID,915.373,VALID,0,VALID,100,VALID,0.220751,VALID,19.5763,VALID,125,VALID,0.468956,
2003-04-27, 01:05:00,VALID,915.375,VALID,0,VALID,100,VALID,0.237732,VALID,19.5758,VALID,97,VALID,0.883868,
2003-04-27, 01:06:00,VALID,915.363,VALID,0,VALID,100,VALID,0.169808,VALID,19.5793,VALID,98,VALID,0.703559,
2003-04-27, 01:07:00,VALID,915.348,VALID,0,VALID,100,VALID,0.288674,VALID,19.5763,VALID,96,VALID,0.410262,
2003-04-27, 01:08:00,VALID,915.334,VALID,0,VALID,100,VALID,0.237732,VALID,19.5763,VALID,90,VALID,0.417763,
2003-04-27, 01:09:00,VALID,915.309,VALID,0,VALID,100,VALID,0.220751,VALID,19.5791,VALID,87,VALID,0.523037,
2003-04-27, 01:10:00,VALID,915.29,VALID,0.2,VALID,100,VALID,0.271693,VALID,19.5666,VALID,86,VALID,0.338942,
2003-04-27, 01:11:00,VALID,915.274,VALID,0,VALID,100,VALID,0.237732,VALID,19.5669,VALID,126,VALID,0.759713,
2003-04-27, 01:12:00,VALID,915.248,VALID,0,VALID,100,VALID,0.237732,VALID,19.5696,VALID,104,VALID,0.579359,
2003-04-27, 01:13:00,VALID,915.226,VALID,0,VALID,100,VALID,0.237732,VALID,19.5627,VALID,85,VALID,0.315905,
2003-04-27, 01:14:00,VALID,915.197,VALID,0,VALID,100,VALID,0.288674,VALID,19.5594,VALID,130,VALID,0.344151,
2003-04-27, 01:15:00,VALID,915.18,VALID,0,VALID,100,VALID,0.20377,VALID,19.5656,VALID,147,VALID,1.12592,
2003-04-27, 01:16:00,VALID,915.149,VALID,0,VALID,100,VALID,0.271693,VALID,19.5761,VALID,155,VALID,0.812706,
2003-04-27, 01:17:00,VALID,915.122,VALID,0,VALID,100,VALID,0.254712,VALID,19.5761,VALID,155,VALID,0.986698,
2003-04-27, 01:18:00,VALID,915.099,VALID,0,VALID,100,VALID,0.237732,VALID,19.5863,VALID,138,VALID,1.18924,
2003-04-27, 01:19:00,VALID,915.087,VALID,0,VALID,100,VALID,0.237732,VALID,19.5796,VALID,146,VALID,1.16884,
2003-04-27, 01:20:00,VALID,915.064,VALID,0,VALID,100,VALID,0.237732,VALID,19.5766,VALID,154,VALID,1.26069,
2003-04-27, 01:21:00,VALID,915.053,VALID,0.2,VALID,100,VALID,0.254712,VALID,19.5664,VALID,150,VALID,1.38408,
2003-04-27, 01:22:00,VALID,915.039,VALID,0,VALID,100,VALID,0.254712,VALID,19.5766,VALID,143,VALID,1.08036,
2003-04-27, 01:23:00,VALID,915.026,VALID,0,VALID,100,VALID,0.288674,VALID,19.5863,VALID,147,VALID,0.764955,
2003-04-27, 01:24:00,VALID,914.999,VALID,0,VALID,100,VALID,0.288674,VALID,19.5696,VALID,153,VALID,1.05613,
2003-04-27, 01:25:00,VALID,914.976,VALID,0,VALID,100,VALID,0.288674,VALID,19.5664,VALID,124,VALID,0.531851,
2003-04-27, 01:26:00,VALID,914.957,VALID,0,VALID,100,VALID,0.220751,VALID,19.5728,VALID,124,VALID,0.665234,
2003-04-27, 01:27:00,VALID,914.945,VALID,0,VALID,100,VALID,0.237732,VALID,19.5631,VALID,125,VALID,0.705592,
2003-04-27, 01:28:00,VALID,914.937,VALID,0,VALID,100,VALID,0.288674,VALID,19.5534,VALID,130,VALID,0.694468,
2003-04-27, 01:29:00,VALID,914.92,VALID,0,VALID,100,VALID,0.271693,VALID,19.5597,VALID,138,VALID,0.824519,
2003-04-27, 01:30:00,VALID,914.9,VALID,0,VALID,100,VALID,0.237732,VALID,19.5639,VALID,132,VALID,1.00521,
2003-04-27, 01:31:00,VALID,914.877,VALID,0,VALID,100,VALID,0.339617,VALID,19.5671,VALID,154,VALID,0.577123,
2003-04-27, 01:32:00,VALID,914.861,VALID,0,VALID,100,VALID,0.271693,VALID,19.5537,VALID,135,VALID,0.796429,
2003-04-27, 01:33:00,VALID,914.836,VALID,0,VALID,100,VALID,0.305655,VALID,19.5505,VALID,140,VALID,0.818359,
2003-04-27, 01:34:00,VALID,914.82,VALID,0,VALID,100,VALID,0.254712,VALID,19.5572,VALID,147,VALID,1.34918,
2003-04-27, 01:35:00,VALID,914.792,VALID,0,VALID,100,VALID,0.271693,VALID,19.5437,VALID,136,VALID,0.804905,
2003-04-27, 01:36:00,VALID,914.773,VALID,0,VALID,100,VALID,0.254712,VALID,19.5537,VALID,143,VALID,1.13535,
2003-04-27, 01:37:00,VALID,914.778,VALID,0,VALID,100,VALID,0.220751,VALID,19.5345,VALID,144,VALID,1.19223,
2003-04-27, 01:38:00,VALID,914.751,VALID,0,VALID,100,VALID,0.305655,VALID,19.5338,VALID,150,VALID,1.48628,
2003-04-27, 01:39:00,VALID,914.73,VALID,0,VALID,100,VALID,0.288674,VALID,19.5338,VALID,140,VALID,1.17673,
2003-04-27, 01:40:00,VALID,914.716,VALID,0,VALID,100,VALID,0.254712,VALID,19.5209,VALID,147,VALID,1.26473,
2003-04-27, 01:41:00,VALID,914.701,VALID,0,VALID,100,VALID,0.237732,VALID,19.5246,VALID,141,VALID,1.24054,
2003-04-27, 01:42:00,VALID,914.694,VALID,0,VALID,100,VALID,0.288674,VALID,19.5144,VALID,148,VALID,1.77175,
2003-04-27, 01:43:00,VALID,914.68,VALID,0,VALID,100,VALID,0.305655,VALID,19.5179,VALID,151,VALID,1.91559,
2003-04-27, 01:44:00,VALID,914.683,VALID,0,VALID,100,VALID,0.254712,VALID,19.5214,VALID,139,VALID,1.02129,
2003-04-27, 01:45:00,VALID,914.676,VALID,0,VALID,100,VALID,0.305655,VALID,19.5082,VALID,147,VALID,1.12438,
2003-04-27, 01:46:00,VALID,914.664,VALID,0,VALID,100,VALID,0.288674,VALID,19.5045,VALID,147,VALID,1.74589,
2003-04-27, 01:47:00,VALID,914.651,VALID,0,VALID,100,VALID,0.339617,VALID,19.5206,VALID,148,VALID,1.50859,
2003-04-27, 01:48:00,VALID,914.636,VALID,0,VALID,100,VALID,0.288674,VALID,19.5012,VALID,121,VALID,1.22296,
2003-04-27, 01:49:00,VALID,914.625,VALID,0,VALID,100,VALID,0.322636,VALID,19.5142,VALID,143,VALID,1.40469,
2003-04-27, 01:50:00,VALID,914.62,VALID,0,VALID,100,VALID,0.373578,VALID,19.4982,VALID,136,VALID,1.36152,
2003-04-27, 01:51:00,VALID,914.609,VALID,0,VALID,100,VALID,0.305655,VALID,19.4982,VALID,125,VALID,1.01823,
2003-04-27, 01:52:00,VALID,914.622,VALID,0,VALID,100,VALID,0.254712,VALID,19.5114,VALID,122,VALID,1.60872,
2003-04-27, 01:53:00,VALID,914.615,VALID,0,VALID,100,VALID,0.305655,VALID,19.5114,VALID,131,VALID,1.52845,
2003-04-27, 01:54:00,VALID,914.608,VALID,0,VALID,100,VALID,0.237732,VALID,19.5288,VALID,147,VALID,1.54749,
2003-04-27, 01:55:00,VALID,914.596,VALID,0,VALID,100,VALID,0.20377,VALID,19.5293,VALID,115,VALID,0.989515,
2003-04-27, 01:56:00,VALID,914.572,VALID,0,VALID,100,VALID,0.237732,VALID,19.5286,VALID,140,VALID,0.754645,
2003-04-27, 01:57:00,VALID,914.547,VALID,0,VALID,100,VALID,0.20377,VALID,19.5522,VALID,130,VALID,0.845052,
2003-04-27, 01:58:00,VALID,914.525,VALID,0,VALID,100,VALID,0.271693,VALID,19.532,VALID,135,VALID,1.31271,
2003-04-27, 01:59:00,VALID,914.488,VALID,0,VALID,100,VALID,0.220751,VALID,19.539,VALID,145,VALID,1.78577,
2003-04-27, 02:00:00,VALID,914.466,VALID,0,VALID,100,VALID,0.220751,VALID,19.5194,VALID,144,VALID,1.30709,
2003-04-27, 02:01:00,VALID,914.456,VALID,0,VALID,100,VALID,0.254712,VALID,19.5258,VALID,128,VALID,0.935096,
2003-04-27, 02:02:00,VALID,914.437,VALID,0,VALID,100,VALID,0.237732,VALID,19.5094,VALID,144,VALID,1.69785,
2003-04-27, 02:03:00,VALID,914.409,VALID,0,VALID,100,VALID,0.237732,VALID,19.4965,VALID,139,VALID,1.90173,
2003-04-27, 02:04:00,VALID,914.404,VALID,0,VALID,100,VALID,0.20377,VALID,19.497,VALID,152,VALID,2.01022,
2003-04-27, 02:05:00,VALID,914.391,VALID,0,VALID,100,VALID,0.254712,VALID,19.5,VALID,140,VALID,1.50962,
2003-04-27, 02:06:00,VALID,914.366,VALID,0,VALID,100,VALID,0.220751,VALID,19.4905,VALID,141,VALID,1.35983,
2003-04-27, 02:07:00,VALID,914.344,VALID,0,VALID,100,VALID,0.237732,VALID,19.5032,VALID,132,VALID,1.72965,
2003-04-27, 02:08:00,VALID,914.305,VALID,0,VALID,100,VALID,0.220751,VALID,19.5131,VALID,143,VALID,1.57644,
2003-04-27, 02:09:00,VALID,914.288,VALID,0,VALID,100,VALID,0.237732,VALID,19.5358,VALID,143,VALID,1.43077,
2003-04-27, 02:10:00,VALID,914.273,VALID,0,VALID,100,VALID,0.20377,VALID,19.5323,VALID,125,VALID,1.74588,
2003-04-27, 02:11:00,VALID,914.235,VALID,0,VALID,100,VALID,0.237732,VALID,19.5291,VALID,150,VALID,1.58655,
2003-04-27, 02:12:00,VALID,914.222,VALID,0,VALID,100,VALID,0.254712,VALID,19.542,VALID,137,VALID,1.44362,
2003-04-27, 02:13:00,VALID,914.209,VALID,0,VALID,100,VALID,0.237732,VALID,19.5425,VALID,143,VALID,1.07321,
2003-04-27, 02:14:00,VALID,914.197,VALID,0,VALID,100,VALID,0.237732,VALID,19.532,VALID,136,VALID,2.37701,
2003-04-27, 02:15:00,VALID,914.183,VALID,0,VALID,100,VALID,0.254712,VALID,19.5288,VALID,137,VALID,1.78988,
2003-04-27, 02:16:00,VALID,914.183,VALID,0,VALID,100,VALID,0.20377,VALID,19.5422,VALID,139,VALID,1.9349,
2003-04-27, 02:17:00,VALID,914.178,VALID,0,VALID,100,VALID,0.152827,VALID,19.5487,VALID,144,VALID,1.11445,
2003-04-27, 02:18:00,VALID,914.186,VALID,0,VALID,100,VALID,0.20377,VALID,19.5487,VALID,129,VALID,1.45518,
2003-04-27, 02:19:00,VALID,914.18,VALID,0,VALID,100,VALID,0.220751,VALID,19.5392,VALID,131,VALID,1.25718,
2003-04-27, 02:20:00,VALID,914.181,VALID,0,VALID,100,VALID,0.20377,VALID,19.533,VALID,120,VALID,1.33914,
2003-04-27, 02:21:00,VALID,914.173,VALID,0,VALID,100,VALID,0.220751,VALID,19.5256,VALID,141,VALID,1.11698,
2003-04-27, 02:22:00,VALID,914.169,VALID,0,VALID,100,VALID,0.271693,VALID,19.5226,VALID,127,VALID,1.38341,
2003-04-27, 02:23:00,VALID,914.161,VALID,0,VALID,100,VALID,0.254712,VALID,19.5126,VALID,122,VALID,1.16808,
2003-04-27, 02:24:00,VALID,914.151,VALID,0,VALID,100,VALID,0.305655,VALID,19.4957,VALID,132,VALID,1.28066,
2003-04-27, 02:25:00,VALID,914.141,VALID,0,VALID,100,VALID,0.305655,VALID,19.5117,VALID,118,VALID,1.55447,
2003-04-27, 02:26:00,VALID,914.136,VALID,0,VALID,100,VALID,0.322636,VALID,19.5084,VALID,133,VALID,1.47309,
2003-04-27, 02:27:00,VALID,914.13,VALID,0,VALID,100,VALID,0.339617,VALID,19.5117,VALID,130,VALID,1.79286,
2003-04-27, 02:28:00,VALID,914.133,VALID,0,VALID,100,VALID,0.288674,VALID,19.5149,VALID,134,VALID,1.63199,
2003-04-27, 02:29:00,VALID,914.129,VALID,0,VALID,100,VALID,0.305655,VALID,19.5179,VALID,139,VALID,1.53695,
2003-04-27, 02:30:00,VALID,914.115,VALID,0,VALID,100,VALID,0.322636,VALID,19.5218,VALID,134,VALID,1.47065,
2003-04-27, 02:31:00,VALID,914.104,VALID,0,VALID,100,VALID,0.288674,VALID,19.5179,VALID,137,VALID,1.4558,
2003-04-27, 02:32:00,VALID,914.077,VALID,0,VALID,100,VALID,0.305655,VALID,19.5079,VALID,137,VALID,1.41118,
2003-04-27, 02:33:00,VALID,914.049,VALID,0,VALID,100,VALID,0.288674,VALID,19.5184,VALID,153,VALID,1.75063,
2003-04-27, 02:34:00,VALID,914.019,VALID,0,VALID,99.999,VALID,0.339617,VALID,19.5283,VALID,142,VALID,2.05697,
2003-04-27, 02:35:00,VALID,913.986,VALID,0,VALID,100,VALID,0.322636,VALID,19.5181,VALID,140,VALID,1.87246,
2003-04-27, 02:36:00,VALID,913.962,VALID,0,VALID,99.9954,VALID,0.339617,VALID,19.5181,VALID,153,VALID,1.84704,
2003-04-27, 02:37:00,VALID,913.949,VALID,0,VALID,99.9883,VALID,0.305655,VALID,19.5214,VALID,148,VALID,2.22183,
2003-04-27, 02:38:00,VALID,913.939,VALID,0,VALID,99.986,VALID,0.339617,VALID,19.5211,VALID,147,VALID,2.19141,
2003-04-27, 02:39:00,VALID,913.922,VALID,0,VALID,99.9723,VALID,0.271693,VALID,19.5253,VALID,147,VALID,1.86899,
2003-04-27, 02:40:00,VALID,913.925,VALID,0,VALID,99.9557,VALID,0.220751,VALID,19.5353,VALID,133,VALID,2.45937,
2003-04-27, 02:41:00,VALID,913.915,VALID,0,VALID,99.9379,VALID,0.288674,VALID,19.5584,VALID,141,VALID,1.70195,
2003-04-27, 02:42:00,VALID,913.904,VALID,0,VALID,99.9278,VALID,0.186789,VALID,19.5649,VALID,136,VALID,1.60373,
2003-04-27, 02:43:00,VALID,913.876,VALID,0,VALID,99.9023,VALID,0.169808,VALID,19.5721,VALID,132,VALID,1.4299,
2003-04-27, 02:44:00,VALID,913.876,VALID,0,VALID,99.8871,VALID,0.20377,VALID,19.5654,VALID,128,VALID,1.622,
2003-04-27, 02:45:00,VALID,913.846,VALID,0,VALID,99.8629,VALID,0.169808,VALID,19.5591,VALID,128,VALID,2.19099,
2003-04-27, 02:46:00,VALID,913.831,VALID,0,VALID,99.8311,VALID,0.169808,VALID,19.5492,VALID,137,VALID,2.02734,
2003-04-27, 02:47:00,VALID,913.818,VALID,0,VALID,99.8184,VALID,0.169808,VALID,19.5621,VALID,142,VALID,1.92145,
2003-04-27, 02:48:00,VALID,913.796,VALID,0,VALID,99.7701,VALID,0.152827,VALID,19.5624,VALID,131,VALID,2.34939,
2003-04-27, 02:49:00,VALID,913.797,VALID,0,VALID,99.7205,VALID,0.254712,VALID,19.5519,VALID,141,VALID,1.99493,
2003-04-27, 02:50:00,VALID,913.801,VALID,0,VALID,99.6811,VALID,0.20377,VALID,19.5651,VALID,125,VALID,2.0111,
2003-04-27, 02:51:00,VALID,913.779,VALID,0,VALID,99.601,VALID,0.220751,VALID,19.5785,VALID,146,VALID,2.35978,
2003-04-27, 02:52:00,VALID,913.774,VALID,0,VALID,99.5666,VALID,0.237732,VALID,19.5582,VALID,130,VALID,1.78005,
2003-04-27, 02:53:00,VALID,913.767,VALID,0,VALID,99.5196,VALID,0.169808,VALID,19.5751,VALID,129,VALID,1.65562,
2003-04-27, 02:54:00,VALID,913.746,VALID,0,VALID,99.4675,VALID,0.254712,VALID,19.5771,VALID,144,VALID,2.1803,
2003-04-27, 02:55:00,VALID,913.724,VALID,0,VALID,99.4318,VALID,0.271693,VALID,19.5629,VALID,141,VALID,1.74379,
2003-04-27, 02:56:00,VALID,913.708,VALID,0,VALID,99.4268,VALID,0.339617,VALID,19.5833,VALID,147,VALID,1.48478,
2003-04-27, 02:57:00,VALID,913.682,VALID,0,VALID,99.4039,VALID,0.237732,VALID,19.5696,VALID,138,VALID,1.51195,
2003-04-27, 02:58:00,VALID,913.667,VALID,0,VALID,99.381,VALID,0.288674,VALID,19.5699,VALID,134,VALID,1.68688,
2003-04-27, 02:59:00,VALID,913.659,VALID,0,VALID,99.3848,VALID,0.322636,VALID,19.5766,VALID,137,VALID,1.93644,
2003-04-27, 03:00:00,VALID,913.647,VALID,0,VALID,99.4026,VALID,0.305655,VALID,19.5992,VALID,143,VALID,1.65299,
2003-04-27, 03:01:00,VALID,913.621,VALID,0,VALID,99.3861,VALID,0.237732,VALID,19.5731,VALID,145,VALID,1.62912,
2003-04-27, 03:02:00,VALID,913.6,VALID,0,VALID,99.3657,VALID,0.288674,VALID,19.5733,VALID,136,VALID,1.82196,
2003-04-27, 03:03:00,VALID,913.591,VALID,0,VALID,99.3721,VALID,0.288674,VALID,19.5768,VALID,139,VALID,1.85072,
2003-04-27, 03:04:00,VALID,913.59,VALID,0,VALID,99.3886,VALID,0.288674,VALID,19.5701,VALID,138,VALID,1.81451,
2003-04-27, 03:05:00,VALID,913.581,VALID,0,VALID,99.3861,VALID,0.322636,VALID,19.5634,VALID,142,VALID,1.90156,
2003-04-27, 03:06:00,VALID,913.554,VALID,0,VALID,99.4013,VALID,0.322636,VALID,19.5574,VALID,135,VALID,1.57134,
2003-04-27, 03:07:00,VALID,913.55,VALID,0,VALID,99.4051,VALID,0.305655,VALID,19.5477,VALID,136,VALID,1.55649,
2003-04-27, 03:08:00,VALID,913.545,VALID,0,VALID,99.395,VALID,0.271693,VALID,19.5572,VALID,151,VALID,1.77168,
2003-04-27, 03:09:00,VALID,913.523,VALID,0,VALID,99.3962,VALID,0.20377,VALID,19.5542,VALID,144,VALID,1.67002,
2003-04-27, 03:10:00,VALID,913.499,VALID,0,VALID,99.3695,VALID,0.237732,VALID,19.5721,VALID,122,VALID,1.53062,
2003-04-27, 03:11:00,VALID,913.493,VALID,0,VALID,99.3416,VALID,0.237732,VALID,19.5843,VALID,134,VALID,1.61438,
2003-04-27, 03:12:00,VALID,913.46,VALID,0,VALID,99.3123,VALID,0.220751,VALID,19.5845,VALID,137,VALID,1.47716,
2003-04-27, 03:13:00,VALID,913.437,VALID,0,VALID,99.3174,VALID,0.271693,VALID,19.6069,VALID,140,VALID,1.21034,
2003-04-27, 03:14:00,VALID,913.429,VALID,0,VALID,99.2882,VALID,0.237732,VALID,19.6072,VALID,133,VALID,1.95223,
2003-04-27, 03:15:00,VALID,913.431,VALID,0,VALID,99.2665,VALID,0.271693,VALID,19.6109,VALID,124,VALID,1.7957,
2003-04-27, 03:16:00,VALID,912.992,VALID,0,VALID,99.2398,VALID,0.271693,VALID,19.6328,VALID,110,VALID,1.80707,
2003-04-27, 03:17:00,VALID,913.447,VALID,0,VALID,99.1305,VALID,0.271693,VALID,19.6231,VALID,135,VALID,2.10699,
2003-04-27, 03:18:00,VALID,913.443,VALID,0,VALID,99.0847,VALID,0.20377,VALID,19.6427,VALID,128,VALID,2.15942,
2003-04-27, 03:19:00,VALID,913.431,VALID,0,VALID,98.9461,VALID,0.20377,VALID,19.6465,VALID,124,VALID,2.44922,
2003-04-27, 03:20:00,VALID,913.443,VALID,0,VALID,98.824,VALID,0.271693,VALID,19.6519,VALID,110,VALID,2.58826,
2003-04-27, 03:21:00,VALID,913.441,VALID,0,VALID,98.7681,VALID,0.237732,VALID,19.681,VALID,112,VALID,2.0095,
2003-04-27, 03:22:00,VALID,913.443,VALID,0,VALID,98.6613,VALID,0.237732,VALID,19.681,VALID,117,VALID,2.17232,
2003-04-27, 03:23:00,VALID,913.441,VALID,0,VALID,98.5455,VALID,0.220751,VALID,19.6907,VALID,123,VALID,2.07155,
2003-04-27, 03:24:00,VALID,913.425,VALID,0,VALID,98.5087,VALID,0.271693,VALID,19.7024,VALID,96,VALID,1.48965,
2003-04-27, 03:25:00,VALID,913.416,VALID,0,VALID,98.4324,VALID,0.339617,VALID,19.729,VALID,130,VALID,1.84089,
2003-04-27, 03:26:00,VALID,913.402,VALID,0,VALID,98.4158,VALID,0.288674,VALID,19.7256,VALID,118,VALID,1.54512,
2003-04-27, 03:27:00,VALID,913.391,VALID,0,VALID,98.3866,VALID,0.322636,VALID,19.7191,VALID,105,VALID,1.79153,
2003-04-27, 03:28:00,VALID,913.371,VALID,0,VALID,98.2925,VALID,0.305655,VALID,19.7315,VALID,121,VALID,1.74507,
2003-04-27, 03:29:00,VALID,913.363,VALID,0,VALID,98.2454,VALID,0.339617,VALID,19.7452,VALID,119,VALID,1.69746,
2003-04-27, 03:30:00,VALID,913.346,VALID,0,VALID,98.2683,VALID,0.305655,VALID,19.7348,VALID,107,VALID,1.06951,
2003-04-27, 03:31:00,VALID,913.313,VALID,0,VALID,98.3968,VALID,0.339617,VALID,19.744,VALID,86,VALID,0.789509,
2003-04-27, 03:32:00,VALID,913.321,VALID,0,VALID,98.4044,VALID,0.390559,VALID,19.7447,VALID,111,VALID,1.75996,
2003-04-27, 03:33:00,VALID,913.311,VALID,0,VALID,98.3993,VALID,0.288674,VALID,19.738,VALID,105,VALID,1.18403,
2003-04-27, 03:34:00,VALID,913.294,VALID,0,VALID,98.5366,VALID,0.254712,VALID,19.7345,VALID,65,VALID,1.02561,
2003-04-27, 03:35:00,VALID,913.288,VALID,0,VALID,98.5277,VALID,0.305655,VALID,19.7283,VALID,82,VALID,1.61659,
2003-04-27, 03:36:00,VALID,913.295,VALID,0,VALID,98.5048,VALID,0.288674,VALID,19.7154,VALID,124,VALID,1.21875,
2003-04-27, 03:37:00,VALID,913.286,VALID,0,VALID,98.5341,VALID,0.322636,VALID,19.7129,VALID,104,VALID,1.75884,
2003-04-27, 03:38:00,VALID,913.284,VALID,0,VALID,98.5036,VALID,0.288674,VALID,19.696,VALID,91,VALID,1.46833,
2003-04-27, 03:39:00,VALID,913.291,VALID,0,VALID,98.5811,VALID,0.288674,VALID,19.7131,VALID,72,VALID,1.36567,